ARIANE 5 R/B, 42693

Orbit data source: Space-Track

ARIANE 5 R/B, 42693 is space debris in HEO originally from a launch on Thu, 04 May 2017 UTC launched from the French Guiana (FRGUI). Debris objects in space refer to the collection of defunct objects orbiting the Earth. Examples of debris include non-operational satellites, rocket bodies, and fragments generated from explosions, collisions, or faulty payload assembly.

Loading next visibility...
Identifier
42693, 2017-023C
Orbit
HEO
Country
Flag of FRFR
Related business
Manufacturer
Airbus Safran
Mission
Spacecraft
Bus & Motor
ESC-A, Unknown motor
Mass
~5,000 kg wet, ~5,000 kg dry
Launch date (UTC)
2017-05-04 (9 years ago)
Launch vehicle
Unknown
Launch site
French Guiana (FRGUI)
Object type
Payload
Rocket body
Debris
Shape & HBR
Cyl + 1 Nozzle, 3.5 m
Radar Cross Section
41.627 m², Large (>1 m²)

Expand to show TLE details & history
Last TLE update: 12 hours ago

TLE from 12 hours ago
0 ARIANE 5 R/B
1 42693U 17023C   25318.51507741  .00009506  00000-0  16132-2 0  9991
2 42693   3.5846 111.5924 7158089 323.1356   4.4521  2.44817413 72948
Epoch: 2025-11-14T12:21Z
TLE epoch observation values (Epoch: 2025-11-14T12:21:42.688Z)
Latitude
-0.00017°
Longitude
-127.40517°
Altitude
830.924 km
Speed
9.666 km/s
True Right ascension
07h 27m 31s
True Declination
0° 00' 01"
Sunlit
Object was in daylight at epoch
Visualization orbit readout
Latitude
Unknown
Longitude
Unknown
Altitude
Unknown
Speed
Unknown
Apparent Right ascension
Unknown
Apparent Declination
Unknown
Sunlit
N/A
Visualization observer readout
Local Sidereal Time
21:07:03
Azimuth
Unknown
Elevation
Unknown
Doppler factor
Unknown
Orbital elements
Apogee altitude
33,531.652 km
Perigee altitude
232.16 km
Semi-major axis
23,260.043 km
Eccentricity
0.71581
Inclination
3.5846°
RAAN
111.5924°
Arg. of periapsis
323.1356°
True anomaly
36.34178°
Mean anomaly
4.4521°
Eccentric anomaly
15.21688°
Mean motion
0.61183 °/min
Orbital period
588.4 mins
BSTAR
0.0016132
Loading maneuver chart data...
Computing Atmospheric mass density...
Loading historical data...
Loading historical data...
Loading historical data...
Loading historical data...
Loading historical data...
Loading historical data...
Loading historical data...
Other satellites on launch #23 in the year 2017 (2017-05-04 UTC)

Documentation

Showing up to 5 results
|